DMSP 5D-2 F13 DEB

Satellite information

Favourite Embed

Satellite Type and Status

DEBRISIN ORBIT

Key statistics

Satellite DMSP 5D-2 F13 DEB at a glance.

Uptime

11006

Days in orbit

Revolutions

≈ 14.5

Per day

Orbit

SSO

Sun Synchronous Orbit

Inclination

98.7

Latest

Satellite identification and parameters

Extended collection of information and parameters for DMSP 5D-2 F13 DEB.

Object identification

Identified? True

Debris? True

Object name: DMSP 5D-2 F13 DEB

International designator: 1995-015EL

Object number (NORAD): 40577

Object ID (CCSDS): 40577

Country: UNITED STATES OF AMERICA (US)

Current information (Y/N): Y

RCS size: SMALL

Orbital parameters

Period: 99.649 minutes

Inclination: 98.6658 deg

SMA: 7119.911 km

Apoapsis: 748.456 km

Periapsis: 735.096 km

RAAN: 164.1658 deg

Eccentricy: 0.0009382

Argument of periapsis: 305.8753 deg

Mean anomaly: 54.1566 deg

Mean motion: 14.45076835 rev/day

Mean motion (dot): 0.00007639 rev/day2

B* drag term: 0.0021958 1/REarth

Two-line elements (TLE)

Creation date: May 8, 2025, 10:56 p.m.

Reference frame: TEME

Reference center: EARTH

Epoch: May 8, 2025, 8:23 a.m. UTC

TLE line 0: 0 DMSP 5D-2 F13 DEB

TLE line 1: 1 40577U 95015EL 25128.34997223 .00007639 00000-0 21958-2 0 9992

TLE line 2: 2 40577 98.6658 164.1658 0009382 305.8753 54.1566 14.45076835527218

Live tracking on map

Real-time ground track for satellite DMSP 5D-2 F13 DEB.

In-orbit conjunctions

A list of the most updated potential collisions computed for object DMSP 5D-2 F13 DEB.

Target Orbit TCA Probability of collision Miss distance Type
CZ-6A DEB LEO 2025-03-20 04:33:23 0.0001332693 54.0 (m) DEBRIS
IRIDIUM 33 DEB LEO 2024-12-11 17:27:12 0.0001194106 77.0 (m) DEBRIS
COSMOS 1331 DEB LEO 2024-10-13 07:02:25 0.000141944 143.0 (m) DEBRIS
METEOR 2-7 DEB LEO 2024-07-15 03:16:00 0.000101388 115.0 (m) DEBRIS

Associated space launch

Military meteorological satellite

DMSP 5D-2 F13 DEB was lifted into orbit during the mission ‘Atlas E | DMSP-5D2 F13’, on board a Atlas E space rocket.

The launch took place on March 24, 1995, 2:05 p.m. from Space Launch Complex 3W.

For more information about the launch, click the button.

Launch to space Atlas E | DMSP-5D2 F13
Atlas E | DMSP-5D2 F13

Agency: N/A

Status: Launch Successful

Launch date: March 24, 1995, 2:05 p.m. UTC

Rocket: Atlas E

Launch pad: Space Launch Complex 3W

Location: Vandenberg SFB, CA, USA

...

Latest news about this satellite

There are no fresh news available about this satellite. Check back as we update our databases every day.


Newsletter sign-up

Weekly statistics, charts and insights to help you stay on top of the space industry.